Date,TemperatureHighF,TemperatureAvgF,TemperatureLowF,DewpointHighF,DewpointAvgF,DewpointLowF,HumidityHigh,HumidityAvg,HumidityLow,PressureMaxIn,PressureMinIn,WindSpeedMaxMPH,WindSpeedAvgMPH,GustSpeedMaxMPH,PrecipitationSumIn
2013-1-1,82.6,72.9,66.7,62.7,59.0,56.3,75,62,50,29.65,29.50,12,1,12,0.00
2013-1-2,84.0,71.6,62.4,66.0,61.7,56.8,83,72,47,29.54,29.44,7,0,7,0.00
2013-1-3,84.4,73.0,67.3,68.7,65.1,62.9,88,77,58,29.58,29.47,0,0,0,0.04
2013-1-4,83.3,72.2,65.1,70.6,65.8,61.2,88,81,61,29.68,29.55,0,0,0,0.00
2013-1-5,75.7,69.8,66.0,68.8,65.2,62.0,90,85,77,29.70,29.61,0,0,0,0.04
2013-1-6,83.3,72.8,64.8,71.1,66.7,61.2,92,82,65,29.64,29.51,0,0,0,0.00
2013-1-7,78.6,70.9,67.3,69.3,65.9,63.9,89,85,66,29.61,29.52,0,0,0,0.00
2013-1-8,84.6,75.8,69.6,71.9,69.1,65.5,88,80,64,29.65,29.51,0,0,0,0.00
2013-1-9,84.4,77.0,73.6,71.1,68.8,66.8,86,76,64,29.73,29.61,0,0,0,0.00
2013-1-10,82.8,76.5,73.2,67.4,65.0,62.8,77,68,52,29.75,29.63,0,0,0,0.00
2013-1-11,83.5,75.8,72.3,68.7,66.0,63.9,80,72,60,29.70,29.60,0,0,0,0.00
2013-1-12,84.6,75.0,70.5,68.6,65.4,62.2,81,72,57,29.63,29.54,0,0,0,0.00
2013-1-13,83.3,75.1,70.9,67.1,63.9,61.2,81,69,54,29.58,29.52,0,0,0,0.00
2013-1-14,84.4,74.7,68.2,65.6,62.4,58.9,75,66,53,29.62,29.56,0,0,0,0.00
2013-1-15,78.4,72.9,65.8,67.6,64.6,59.7,81,75,67,29.59,29.49,0,0,0,0.00
2013-1-16,83.5,72.7,63.7,69.5,64.8,58.6,89,77,60,29.55,29.47,0,0,0,0.00
2013-1-17,80.2,71.0,61.2,70.5,64.6,52.3,89,80,70,29.54,29.42,0,0,0,0.00
2013-1-18,71.4,63.4,52.9,58.7,51.6,43.8,74,66,54,29.68,29.54,0,0,0,0.00
2013-1-19,70.7,67.8,64.6,65.8,61.4,55.2,90,80,62,29.66,29.53,0,0,0,0.00
2013-1-20,81.7,70.4,63.7,67.8,64.5,60.8,91,82,63,29.59,29.45,0,0,0,0.00
2013-1-21,82.8,71.9,65.8,69.9,65.7,61.9,90,81,64,29.52,29.41,0,0,0,0.00
2013-1-22,78.6,68.5,62.4,62.1,57.4,51.5,87,69,52,29.66,29.45,0,0,0,0.00
2013-1-23,76.6,67.9,61.2,57.3,53.1,50.4,74,60,44,29.74,29.64,0,0,0,0.00
2013-1-24,78.4,65.8,58.3,54.5,51.4,46.3,79,61,42,29.74,29.64,0,0,0,0.00
2013-1-25,79.3,66.7,57.7,59.3,53.4,48.2,76,63,46,29.74,29.62,0,0,0,0.00
2013-1-26,79.5,67.5,59.4,59.0,56.2,50.8,84,68,48,29.70,29.61,0,0,0,0.00
2013-1-27,79.3,70.1,62.4,61.4,59.1,56.5,83,69,51,29.73,29.64,0,0,0,0.00
2013-1-28,83.1,74.7,70.2,65.0,62.2,59.3,74,66,52,29.76,29.68,0,0,0,0.00
2013-1-29,81.5,74.5,70.5,68.5,64.9,62.3,80,72,63,29.68,29.57,0,0,0,0.00
2013-1-30,84.0,74.8,70.3,66.8,63.9,61.2,83,69,56,29.57,29.41,0,0,0,0.00
2013-1-31,72.9,67.0,59.5,69.5,57.2,40.1,90,72,47,29.63,29.40,0,0,0,0.00
2013-2-1,74.1,62.5,52.9,54.0,46.7,36.7,67,57,48,29.72,29.60,0,0,0,0.00
2013-2-2,77.9,64.1,55.8,52.9,47.9,37.0,75,56,42,29.71,29.56,0,0,0,0.00
2013-2-3,76.8,63.7,55.6,53.3,48.1,42.4,82,59,31,29.62,29.51,0,0,0,0.00
2013-2-4,79.3,63.2,51.1,53.8,47.1,38.3,75,58,33,29.59,29.48,0,0,0,0.00
2013-2-5,83.8,67.2,54.5,63.0,56.1,49.1,82,69,49,29.53,29.45,0,0,0,0.00
2013-2-6,83.8,70.8,61.2,65.4,60.6,56.5,85,71,55,29.55,29.47,0,0,0,0.00
2013-2-7,86.2,74.4,67.5,66.0,62.5,59.6,78,67,48,29.52,29.40,0,0,0,0.00
2013-2-8,86.5,75.1,69.1,69.4,66.0,62.0,87,74,55,29.48,29.36,0,0,0,0.00
2013-2-9,82.9,71.0,64.8,66.8,61.3,57.3,86,72,55,29.62,29.45,0,0,0,0.00
2013-2-10,76.5,71.1,67.8,62.3,59.7,55.1,77,68,61,29.71,29.59,0,0,0,0.00
2013-2-11,83.3,73.5,68.4,65.7,62.0,58.4,75,68,55,29.67,29.56,0,0,0,0.00
2013-2-12,87.6,74.9,65.8,69.4,65.1,60.8,85,72,52,29.57,29.42,0,0,0,0.00
2013-2-13,88.5,76.8,68.2,72.4,68.0,63.2,89,75,55,29.46,29.34,0,0,0,0.00
2013-2-14,83.3,72.2,63.7,70.8,66.1,59.8,87,82,65,29.46,29.30,0,0,0,0.00
2013-2-15,72.9,66.9,64.0,65.4,62.7,59.8,91,86,76,29.46,29.38,0,0,0,0.00
2013-2-16,76.6,66.1,55.6,62.8,55.4,43.1,90,70,41,29.53,29.32,0,0,0,0.00
2013-2-17,62.2,52.9,45.1,43.5,29.7,20.2,65,43,25,29.75,29.52,0,0,0,0.00
2013-2-18,72.7,59.5,46.8,54.7,43.7,31.7,67,56,44,29.77,29.64,0,0,0,0.00
2013-2-19,84.0,71.6,62.2,65.6,59.4,51.5,82,66,53,29.64,29.53,0,0,0,0.00
2013-2-20,82.0,71.7,65.1,66.3,62.2,56.8,87,73,48,29.56,29.46,0,0,0,0.00
2013-2-21,86.9,74.2,65.8,67.6,64.0,61.1,86,72,50,29.54,29.44,0,0,0,0.00
2013-2-22,87.4,76.5,71.4,71.4,67.9,64.2,85,75,59,29.55,29.46,0,0,0,0.00
2013-2-23,90.3,77.9,72.3,73.0,69.0,66.3,85,75,56,29.49,29.36,0,0,0,0.00
2013-2-24,91.0,78.4,71.4,73.3,69.3,66.1,90,75,50,29.45,29.34,0,0,0,0.00
2013-2-25,89.6,76.8,69.3,72.9,68.5,63.8,86,76,57,29.37,29.26,0,0,0,0.00
2013-2-26,90.0,79.3,73.8,72.0,69.3,67.6,85,72,52,29.35,29.24,0,0,0,0.00
2013-2-27,78.1,71.8,66.2,71.1,64.3,60.8,87,78,58,29.42,29.31,0,0,0,0.00
2013-2-28,71.1,65.4,60.4,62.3,53.3,47.1,87,66,44,29.45,29.35,0,0,0,0.00
2013-3-1,67.3,62.6,58.6,55.4,50.1,45.3,77,64,55,29.44,29.35,0,0,0,0.00
2013-3-2,68.0,58.9,53.4,46.9,41.0,35.1,65,52,38,29.49,29.40,0,0,0,0.00
2013-3-3,66.6,56.2,50.4,45.2,41.3,38.9,76,58,41,29.60,29.40,0,0,0,0.00
2013-3-4,72.5,56.0,43.7,43.2,36.8,32.2,67,50,30,29.66,29.56,0,0,0,0.00
2013-3-5,80.8,64.5,49.6,57.7,50.5,40.1,77,62,44,29.63,29.53,0,0,0,0.00
2013-3-6,80.1,66.3,53.6,63.6,50.4,29.2,83,59,27,29.55,29.40,0,0,0,0.00
2013-3-7,76.3,60.7,48.0,52.3,43.1,33.4,77,54,35,29.63,29.51,0,0,0,0.00
2013-3-8,80.8,65.1,54.1,52.3,49.3,44.5,80,59,30,29.64,29.55,0,0,0,0.00
2013-3-9,79.5,66.1,55.9,56.8,51.5,47.0,79,60,44,29.64,29.55,0,0,0,0.00
2013-3-10,82.2,71.3,65.1,59.1,54.8,50.8,70,57,43,29.61,29.52,0,0,0,0.00
2013-3-11,83.5,73.3,68.2,61.5,58.9,56.4,70,61,45,29.55,29.41,0,0,0,0.00
2013-3-12,85.5,74.6,69.4,69.7,63.8,59.5,78,69,58,29.45,29.35,0,0,0,0.00
2013-3-13,79.5,68.0,57.7,63.6,53.3,43.0,82,62,31,29.57,29.43,0,0,0,0.00
2013-3-14,76.3,63.2,54.7,51.3,45.4,38.6,77,55,30,29.65,29.53,0,0,0,0.00
2013-3-15,77.5,64.2,53.4,52.3,47.7,42.5,71,56,36,29.70,29.59,0,0,0,0.00
2013-3-16,83.1,67.5,55.0,57.8,52.1,49.0,80,60,39,29.64,29.54,0,0,0,0.00
2013-3-17,82.8,70.1,60.4,60.6,56.7,51.2,80,64,46,29.60,29.48,0,0,0,0.00
2013-3-18,85.8,73.3,66.0,68.4,63.5,57.8,84,72,55,29.53,29.41,0,0,0,0.00
2013-3-19,83.8,73.9,69.1,68.2,65.9,63.7,89,77,57,29.47,29.26,0,0,0,0.00
2013-3-20,91.8,74.5,64.8,70.5,63.6,57.4,87,70,48,29.43,29.25,0,0,0,0.00
2013-3-21,81.3,69.6,61.7,59.3,52.6,41.8,83,58,28,29.39,29.28,0,0,0,0.00
2013-3-22,81.1,69.7,57.9,66.9,58.1,49.8,83,68,48,29.45,29.35,0,0,0,0.00
2013-3-23,93.4,79.2,70.5,74.0,70.0,66.9,90,75,48,29.43,29.25,0,0,0,0.00
2013-3-24,92.5,80.8,73.9,72.0,69.9,66.1,89,71,48,29.34,29.14,0,0,0,0.00
2013-3-25,84.0,75.3,66.2,71.1,59.5,42.5,86,61,37,29.44,29.19,0,0,0,0.00
2013-3-26,72.3,62.3,53.1,43.1,37.9,29.4,54,41,23,29.66,29.43,0,0,0,0.00
2013-3-27,75.9,59.2,46.9,47.0,40.1,32.4,62,50,31,29.70,29.61,0,0,0,0.00
2013-3-28,78.4,63.3,52.0,50.3,43.7,36.6,67,50,31,29.71,29.61,0,0,0,0.00
2013-3-29,79.2,66.4,57.0,53.5,48.0,40.9,62,52,40,29.74,29.65,0,0,0,0.00
2013-3-30,84.4,69.8,57.6,55.1,51.3,48.6,75,54,36,29.71,29.61,0,0,0,0.00
2013-3-31,87.1,74.0,64.8,66.2,60.1,52.1,76,63,46,29.64,29.49,0,0,0,0.00
2013-4-1,90.3,76.6,70.5,70.0,65.4,61.0,85,69,43,29.50,29.40,0,0,0,0.00
2013-4-2,90.1,75.6,66.2,68.2,64.0,61.1,89,69,46,29.53,29.44,0,0,0,0.00
2013-4-3,90.7,78.5,70.2,70.3,66.5,63.5,81,68,48,29.52,29.44,0,0,0,0.00
2013-4-4,91.2,76.8,70.0,73.3,68.2,63.5,86,76,56,29.50,29.35,0,0,0,0.00
2013-4-5,74.1,69.2,66.4,68.8,64.1,61.8,88,84,76,29.43,29.27,0,0,0,0.00
2013-4-6,80.8,69.5,59.2,64.4,59.2,54.7,87,71,55,29.53,29.37,0,0,0,0.02
2013-4-7,84.9,73.5,69.4,64.2,61.3,59.0,76,66,49,29.59,29.46,0,0,0,0.02
2013-4-8,88.3,75.2,63.1,64.2,60.5,57.2,83,62,40,29.58,29.49,0,0,0,0.00
2013-4-9,88.3,77.1,71.2,69.0,64.6,62.0,76,66,52,29.60,29.50,0,0,0,0.00
2013-4-10,91.8,79.6,72.9,72.2,68.4,64.1,78,69,53,29.55,29.44,0,0,0,0.00
2013-4-11,76.5,75.8,75.0,69.4,68.8,68.0,82,79,76,29.47,29.40,0,0,0,0.00
2013-6-6,76.6,76.5,76.3,71.5,71.4,71.1,85,84,84,29.32,29.29,0,0,0,0.00
2013-6-7,95.2,79.8,75.4,78.0,72.6,70.3,86,79,57,29.39,29.29,0,0,0,0.00
2013-6-8,92.3,84.3,80.2,77.1,75.1,73.9,82,74,60,29.55,29.45,0,0,0,0.00
2013-6-9,95.2,84.8,78.6,77.1,73.7,72.1,81,70,54,29.56,29.48,0,0,0,0.00
2013-6-10,95.2,85.3,79.3,77.0,74.4,72.2,81,71,55,29.54,29.45,0,0,0,0.00
2013-6-11,98.8,85.0,79.2,79.0,75.1,73.7,85,73,48,29.55,29.45,0,0,1,0.00
2013-6-12,96.8,82.1,77.7,78.3,74.0,72.1,85,77,54,29.53,29.46,0,0,0,0.00
2013-6-13,96.3,82.0,75.4,77.1,72.8,70.5,88,75,46,29.50,29.38,0,0,0,0.00
2013-6-14,100.4,83.6,75.6,77.9,72.3,69.5,85,70,43,29.43,29.32,0,0,0,0.29
2013-6-15,97.2,85.2,75.0,77.2,73.5,70.9,87,70,49,29.47,29.37,0,0,0,0.00
2013-6-16,99.1,87.3,75.9,77.5,74.4,70.9,85,67,47,29.54,29.46,0,0,0,0.00
2013-6-17,100.9,88.4,78.6,78.4,74.3,71.2,80,64,46,29.53,29.45,0,0,0,0.00
2013-6-18,101.5,88.8,79.5,78.3,74.4,71.8,78,64,46,29.52,29.44,0,0,0,0.00
2013-6-19,102.0,88.3,79.7,78.4,74.3,72.2,80,65,45,29.50,29.43,0,0,0,0.00
2013-6-20,99.3,85.4,75.6,79.5,72.7,67.8,83,67,48,29.54,29.46,0,0,0,0.12
2013-6-21,98.6,85.4,77.7,77.3,73.7,70.0,82,70,46,29.56,29.48,0,0,0,0.16
2013-6-23,91.9,84.9,81.5,74.3,72.0,71.0,71,66,55,29.58,29.51,0,0,0,0.00
2013-6-24,96.6,86.4,79.9,76.9,72.9,70.4,75,65,52,29.61,29.52,0,0,0,0.02
2013-6-25,97.0,85.8,79.0,78.7,73.9,70.3,79,68,52,29.58,29.48,0,0,0,0.02
2013-6-26,98.2,85.9,78.1,78.1,73.8,71.0,81,68,49,29.53,29.45,0,0,0,0.05
2013-6-27,92.8,83.8,76.8,80.0,73.6,67.5,82,72,59,29.51,29.40,0,0,0,0.04
2013-6-28,95.7,83.1,76.1,80.5,73.2,69.5,83,73,54,29.45,29.31,0,0,0,0.04
2013-6-29,98.4,83.6,75.2,80.2,74.1,70.1,85,74,53,29.36,29.27,0,0,0,0.04
2013-6-30,97.0,83.9,77.5,78.3,73.7,71.2,84,72,54,29.39,29.30,0,0,0,0.04
2013-7-1,95.9,83.9,78.4,79.1,74.0,70.5,84,73,55,29.48,29.36,0,0,0,0.00
2013-7-2,94.5,85.3,79.0,79.1,75.7,71.3,84,73,61,29.52,29.42,0,0,0,0.00
2013-7-3,93.7,84.7,78.6,77.4,74.1,71.6,81,71,58,29.56,29.49,0,0,0,0.00
2013-7-4,94.8,83.6,78.6,76.9,72.6,69.3,79,70,54,29.61,29.51,0,0,0,0.00
2013-7-5,91.9,82.8,78.4,77.1,73.6,70.4,83,74,62,29.58,29.50,0,0,0,0.00
2013-7-6,94.3,85.3,79.2,76.9,73.5,71.4,79,69,53,29.57,29.48,0,0,0,0.00
2013-7-7,94.6,85.4,79.0,76.0,73.3,70.6,79,68,55,29.55,29.47,0,0,0,0.00
2013-7-8,96.6,86.0,79.3,75.6,72.4,69.5,74,65,49,29.59,29.52,0,0,0,0.00
2013-7-9,93.7,83.7,76.6,75.2,71.2,69.0,81,67,50,29.59,29.50,0,0,0,0.04
2013-7-10,92.5,81.0,74.5,76.7,72.0,68.3,84,74,58,29.54,29.45,0,0,0,0.00
2013-7-11,99.7,86.0,76.8,77.9,73.3,70.0,84,67,48,29.49,29.39,0,0,0,0.00
2013-7-12,97.3,83.5,77.4,79.4,72.7,69.2,82,71,51,29.43,29.35,0,0,0,0.12
2013-7-13,91.8,77.1,73.2,77.8,70.7,68.7,87,81,63,29.48,29.36,0,0,0,0.04
2013-7-14,96.1,80.3,73.2,79.3,72.0,68.3,89,77,52,29.54,29.43,0,0,0,0.00
2013-7-15,96.1,82.2,73.2,76.9,71.9,68.6,88,72,50,29.54,29.45,0,0,0,0.00
2013-7-16,87.1,78.7,74.8,73.0,70.3,67.5,83,76,62,29.60,29.49,0,0,0,0.00
2013-7-17,81.0,76.1,73.2,76.0,70.8,67.7,88,83,76,29.60,29.49,0,0,0,0.00
2013-7-18,87.1,77.8,73.2,79.0,72.9,69.3,90,85,74,29.57,29.50,0,0,0,0.00
2013-7-19,94.3,84.6,73.6,79.1,75.2,69.5,90,74,58,29.57,29.49,0,0,0,0.00
2013-7-20,94.8,82.9,77.7,80.5,74.8,70.3,85,77,62,29.56,29.48,0,0,0,0.00
2013-7-21,95.7,82.8,76.5,81.4,74.7,70.5,87,77,59,29.60,29.50,0,0,0,0.00
2013-7-22,99.0,86.8,78.4,78.3,74.4,71.1,84,68,48,29.59,29.51,0,0,0,0.00
2013-7-23,100.2,86.9,77.7,80.0,74.3,70.8,82,67,48,29.56,29.42,0,0,0,0.00
2013-7-24,100.0,87.4,78.6,77.6,72.8,67.3,82,64,42,29.47,29.35,0,0,0,0.02
2013-7-25,99.9,87.3,77.4,76.2,72.5,68.6,79,63,46,29.47,29.36,0,0,0,0.00
2013-7-26,99.7,85.9,79.5,77.0,73.7,71.2,80,68,47,29.48,29.38,0,0,0,0.06
2013-7-27,90.1,81.8,78.6,78.3,73.8,70.4,84,77,64,29.45,29.38,0,0,0,0.00
2013-7-28,89.8,81.8,76.6,79.2,74.1,71.2,86,78,68,29.52,29.40,0,0,0,0.00
2013-7-29,95.9,84.2,76.6,78.7,74.4,71.2,85,73,56,29.58,29.47,0,0,0,0.00
2013-7-30,96.4,86.2,76.6,78.8,75.2,69.4,83,71,55,29.61,29.52,0,0,0,0.05
2013-7-31,96.8,87.0,80.4,78.2,74.3,70.6,80,67,52,29.56,29.45,0,0,0,0.00
2013-8-1,95.9,86.3,80.2,75.9,73.0,70.9,76,65,50,29.50,29.39,0,0,0,0.00
2013-8-2,96.3,84.2,78.1,76.8,72.2,69.2,80,68,50,29.50,29.36,0,0,0,0.24
2013-8-3,90.9,79.6,74.5,78.3,72.7,66.1,85,80,61,29.60,29.47,0,0,0,0.41
2013-8-4,99.0,87.4,75.7,80.1,74.2,70.5,88,66,53,29.56,29.43,0,0,0,0.00
2013-8-5,96.6,84.2,78.1,80.4,73.9,69.9,84,72,55,29.49,29.39,0,0,0,0.00
2013-8-6,99.5,85.6,77.2,79.7,74.2,69.9,84,70,52,29.44,29.33,0,0,0,0.00
2013-8-7,95.7,85.9,78.1,78.9,73.9,70.4,82,68,54,29.43,29.35,0,0,0,0.00
2013-8-8,97.3,87.4,81.0,77.9,74.2,72.3,78,66,50,29.47,29.37,0,0,0,0.00
2013-8-9,92.3,84.4,80.4,77.0,72.9,69.3,76,69,58,29.51,29.40,0,0,0,0.12
2013-8-10,98.4,87.1,80.1,78.8,74.5,71.4,80,67,51,29.56,29.48,0,0,0,0.00
2013-8-11,97.0,87.5,80.8,78.4,74.9,72.4,78,67,53,29.58,29.51,0,0,0,0.00
2013-8-12,95.5,85.0,77.7,77.4,73.3,69.9,79,68,52,29.56,29.46,0,0,0,0.10
2013-8-13,100.0,88.0,79.5,78.6,74.2,70.9,80,65,46,29.49,29.40,0,0,0,0.00
2013-8-14,100.2,88.0,79.0,77.6,73.6,71.0,78,64,46,29.48,29.38,0,0,0,0.00
2013-8-15,94.6,83.2,76.8,80.1,74.2,71.1,84,75,60,29.51,29.41,0,0,0,0.04
2013-8-16,99.3,86.9,78.8,79.7,75.8,72.8,84,71,52,29.50,29.43,0,0,0,0.00
2013-8-17,97.0,88.0,81.5,79.7,76.3,73.6,79,69,56,29.53,29.44,0,0,0,0.00
2013-8-18,95.5,86.4,81.3,79.6,75.4,73.4,78,70,59,29.53,29.44,0,0,0,0.06
2013-8-19,96.4,87.1,81.1,78.5,75.3,72.8,80,69,55,29.51,29.41,0,0,0,0.00
2013-8-20,98.1,87.0,80.4,78.0,74.5,71.2,78,67,51,29.51,29.43,0,0,0,0.00
2013-8-21,83.5,81.6,81.0,75.1,74.3,72.6,80,78,75,29.50,29.45,0,0,0,0.00
2013-8-26,93.4,83.3,77.9,76.8,72.9,69.7,80,71,57,29.57,29.46,0,0,0,0.00
2013-8-27,86.2,80.4,75.4,75.5,71.5,69.3,83,74,63,29.49,29.41,0,0,0,0.18
2013-8-28,93.7,82.0,75.9,78.7,72.7,69.5,84,74,55,29.48,29.39,0,0,0,0.27
2013-8-29,95.0,84.4,75.6,77.7,73.6,69.8,83,71,54,29.47,29.37,0,0,0,0.00
2013-8-30,97.9,86.3,77.2,77.1,73.2,70.6,82,66,50,29.45,29.34,0,0,0,0.00
2013-8-31,91.8,81.8,76.1,76.7,72.8,70.6,84,74,61,29.42,29.36,0,0,0,0.18
2013-9-1,89.8,81.9,74.3,79.5,74.1,70.2,89,77,68,29.45,29.38,0,0,0,0.02
2013-9-2,95.0,79.9,75.0,80.9,73.1,68.4,89,80,58,29.48,29.39,0,0,0,0.10
2013-9-3,91.2,80.7,73.2,79.1,73.7,69.0,88,80,65,29.48,29.38,0,0,0,0.23
2013-9-4,86.5,81.1,77.7,78.8,74.8,72.3,88,81,74,29.52,29.39,0,0,0,0.65
2013-9-5,94.3,84.3,79.0,79.8,75.8,73.4,86,76,57,29.52,29.44,0,0,0,0.00
2013-9-6,97.5,86.3,78.6,78.2,75.3,73.1,84,71,52,29.48,29.37,0,0,0,0.00
2013-9-7,89.2,80.1,75.4,78.1,73.0,70.3,85,79,69,29.42,29.35,0,0,0,0.04
2013-9-8,88.3,79.2,73.4,76.4,72.2,69.3,87,79,66,29.39,29.30,0,0,0,0.25
2013-9-9,91.9,82.6,74.3,76.8,72.8,69.2,86,73,58,29.43,29.34,0,0,0,0.00
2013-9-10,93.0,84.1,78.1,76.5,73.5,70.8,81,71,52,29.48,29.39,0,0,0,0.00
2013-9-11,84.4,80.9,76.5,77.1,73.0,70.1,84,77,71,29.51,29.40,0,0,0,0.89
2013-9-12,86.2,80.4,76.6,77.2,73.6,70.9,87,80,73,29.47,29.33,0,0,0,0.00
2013-9-13,97.5,84.6,74.8,78.1,73.5,70.0,87,71,52,29.35,29.25,0,0,0,0.00
2013-9-14,96.6,85.5,76.8,77.1,73.0,70.7,83,68,48,29.43,29.27,0,0,0,0.00
2013-9-15,86.9,81.2,78.6,77.6,74.1,71.1,83,79,73,29.49,29.37,0,0,0,0.05
2013-9-16,85.8,81.2,78.3,77.9,74.0,70.8,85,79,68,29.48,29.40,0,0,0,0.02
2013-9-17,85.6,80.1,76.1,77.6,73.4,70.9,86,80,72,29.48,29.35,0,0,0,0.36
2013-9-18,90.3,80.7,75.9,78.3,73.2,70.1,88,78,61,29.47,29.36,0,0,0,1.10
2013-9-19,91.2,80.7,74.3,76.9,72.7,69.1,88,77,59,29.45,29.36,0,0,0,0.02
2013-9-20,89.8,81.8,74.8,71.5,69.3,66.4,79,67,50,29.44,29.34,0,0,0,0.00
2013-9-21,93.9,82.8,74.5,75.3,71.2,68.0,81,69,54,29.36,29.22,0,0,0,0.00
2013-9-22,94.8,84.6,77.0,78.4,74.0,70.6,84,71,53,29.32,29.20,0,0,0,0.00
2013-9-23,91.9,82.1,78.1,79.6,74.3,70.8,86,78,62,29.43,29.30,0,0,0,0.45
2013-9-24,97.0,82.8,75.9,81.0,74.6,69.7,89,77,57,29.42,29.32,0,0,0,0.04
2013-9-25,91.2,81.3,75.7,78.3,72.5,68.4,83,75,60,29.36,29.25,0,0,0,0.11
2013-9-26,90.9,81.0,76.8,79.3,74.4,71.4,87,81,65,29.32,29.24,0,0,0,0.14
2013-9-27,91.2,80.9,74.8,75.2,71.6,68.9,89,74,49,29.37,29.26,0,0,0,0.00
2013-9-28,91.6,80.5,73.8,74.6,70.9,68.8,87,74,55,29.40,29.32,0,0,0,0.06
2013-9-29,91.6,81.1,73.0,73.6,69.7,67.1,86,70,49,29.42,29.32,0,0,0,0.02
2013-9-30,93.9,82.2,73.0,74.3,69.4,65.7,82,66,49,29.45,29.35,0,0,0,0.00
2013-10-1,91.6,83.2,77.2,74.8,70.6,67.9,76,66,55,29.48,29.40,0,0,0,0.00
2013-10-2,88.5,82.1,79.3,74.2,71.4,69.7,77,70,58,29.49,29.41,0,0,0,0.06
2013-10-3,90.9,82.4,77.9,75.5,72.0,68.7,80,71,59,29.50,29.39,0,0,0,0.00
2013-10-4,92.5,82.0,75.4,73.6,70.1,67.2,81,68,51,29.50,29.43,0,0,0,0.00
2013-10-5,93.0,81.6,73.0,73.3,69.3,65.7,82,67,51,29.48,29.38,0,0,0,0.00
2013-10-6,94.8,83.1,75.0,76.7,70.5,67.3,82,67,47,29.42,29.31,0,0,0,0.00
2013-10-7,94.6,81.0,75.0,75.2,70.4,67.2,82,71,52,29.35,29.26,0,0,0,0.02
2013-10-8,94.6,82.4,76.3,78.7,72.8,68.3,88,74,55,29.38,29.30,0,0,0,0.00
2013-10-9,88.0,79.1,73.9,75.4,70.5,66.3,82,75,62,29.43,29.35,0,0,0,0.00
2013-10-10,89.4,80.1,72.9,73.3,69.7,66.3,85,71,54,29.45,29.38,0,0,0,0.00
2013-10-11,89.1,79.1,70.9,70.4,66.3,63.6,83,66,50,29.45,29.38,0,0,0,0.00
2013-10-12,90.0,78.6,69.4,69.0,65.5,61.7,80,65,50,29.48,29.39,0,0,0,0.00
2013-10-13,86.9,78.3,72.5,70.6,65.1,61.7,81,65,46,29.50,29.41,0,0,0,0.00
2013-10-14,89.2,78.6,70.5,70.4,66.0,62.3,81,66,50,29.46,29.35,0,0,0,0.00
2013-10-15,89.2,78.8,71.8,71.7,67.7,64.1,84,69,52,29.40,29.31,0,0,0,0.00
2013-10-16,87.4,77.9,72.3,70.9,67.5,64.3,82,71,55,29.40,29.33,0,0,0,0.00
2013-10-17,91.2,79.6,71.2,72.7,68.6,65.3,85,70,53,29.41,29.34,0,0,0,0.00
2013-10-18,92.1,80.9,72.0,75.0,69.7,65.6,83,69,54,29.43,29.35,0,0,0,0.00
2013-10-19,94.6,83.2,74.8,74.7,70.9,67.5,80,67,51,29.41,29.32,0,0,0,0.00
2013-10-20,92.5,82.5,77.4,77.1,72.9,70.2,82,73,59,29.41,29.32,0,0,0,0.00
2013-10-21,94.3,83.7,76.8,78.3,73.6,70.9,85,72,54,29.45,29.35,0,0,0,0.00
2013-10-22,95.7,84.0,75.6,77.4,73.6,69.7,84,72,52,29.41,29.28,0,0,0,0.00
2013-10-23,90.7,81.4,77.4,73.9,71.4,67.0,84,72,55,29.40,29.26,0,0,0,0.00
2013-10-24,80.8,76.5,72.7,66.9,64.0,60.6,75,65,58,29.54,29.38,0,0,0,0.00
2013-10-25,84.0,76.7,69.8,66.1,62.3,60.5,74,62,49,29.59,29.50,0,0,0,0.00
2013-10-26,86.7,76.7,69.1,65.8,61.7,58.8,74,60,48,29.59,29.49,0,0,0,0.00
2013-10-27,86.5,75.2,66.9,65.2,61.3,58.0,74,63,48,29.54,29.46,0,0,0,0.00
2013-10-28,87.4,77.4,67.8,67.1,62.6,59.3,78,61,43,29.58,29.49,0,0,0,0.00
2013-10-29,87.6,77.5,68.7,69.4,64.6,59.7,81,65,53,29.62,29.53,0,0,0,0.00
2013-10-30,87.8,79.4,74.8,67.9,65.1,63.2,69,62,50,29.63,29.53,0,0,0,0.00
2013-10-31,90.1,80.6,76.1,71.8,68.4,64.8,75,67,52,29.56,29.44,0,0,0,0.00
2013-11-1,92.3,82.0,76.1,74.9,70.8,68.1,78,69,55,29.46,29.33,0,0,0,0.00
2013-11-2,92.8,80.4,72.5,72.5,68.3,63.2,84,68,45,29.39,29.25,0,0,0,0.00
2013-11-3,81.5,74.8,68.5,64.8,61.3,58.9,76,63,53,29.47,29.33,0,0,0,0.00
2013-11-4,82.9,76.1,73.6,67.1,62.3,55.3,73,63,44,29.52,29.45,0,0,0,0.04
2013-11-5,83.1,78.5,75.6,69.0,66.6,63.3,74,67,58,29.53,29.45,0,0,0,0.00
2013-11-6,87.1,79.0,72.5,69.7,67.1,64.5,76,67,53,29.51,29.44,0,0,0,0.00
2013-11-7,88.3,76.9,70.0,71.6,67.4,63.8,85,73,56,29.46,29.36,0,0,0,0.00
2013-11-8,86.0,76.5,71.4,70.4,68.3,65.6,86,76,58,29.48,29.38,0,0,0,0.19
2013-11-9,80.2,75.4,72.9,72.4,69.7,68.4,89,82,76,29.56,29.45,0,0,0,0.16
2013-11-10,85.6,78.4,75.6,71.6,68.6,65.8,80,72,62,29.56,29.48,0,0,0,0.00
2013-11-11,85.8,77.8,71.4,71.2,66.7,64.1,81,69,58,29.55,29.48,0,0,0,0.00
2013-11-12,86.5,77.3,70.3,69.8,65.9,63.4,83,68,54,29.52,29.40,0,0,0,0.00
2013-11-13,76.1,72.5,70.3,64.9,62.9,60.4,76,72,63,29.55,29.43,0,0,0,0.00
2013-11-14,76.3,72.1,68.5,59.6,56.7,53.7,65,58,53,29.67,29.59,0,0,0,0.00
2013-11-15,83.8,76.7,72.1,68.2,64.3,60.1,71,65,59,29.57,29.47,0,0,0,0.00
2013-11-16,82.0,78.0,75.4,69.2,67.8,65.2,78,71,63,29.54,29.46,0,0,0,0.04
2013-11-17,86.5,79.0,74.5,72.9,68.8,66.4,80,71,60,29.52,29.44,0,0,0,0.00
2013-11-18,88.2,77.9,72.1,74.2,68.8,65.6,85,74,58,29.47,29.36,0,0,0,0.00
2013-11-19,86.5,76.9,73.0,72.2,68.7,66.4,83,76,61,29.39,29.30,0,0,0,0.00
2013-11-20,88.7,77.2,70.5,75.1,69.5,66.1,88,78,62,29.50,29.35,0,0,0,0.00
2013-11-21,82.8,76.4,72.3,74.4,70.3,68.1,88,82,70,29.58,29.48,0,0,0,0.98
2013-11-22,83.3,77.5,75.2,70.7,68.5,66.7,81,74,65,29.59,29.51,0,0,0,0.00
2013-11-23,84.6,77.8,72.7,71.4,68.5,65.8,80,73,62,29.52,29.42,0,0,0,0.00
2013-11-24,83.1,73.7,68.5,68.8,65.3,61.4,85,76,57,29.58,29.43,0,0,0,0.30
2013-11-25,77.9,72.9,70.9,66.7,62.8,58.5,84,71,63,29.64,29.50,0,0,0,0.07
2013-11-26,85.3,77.0,71.4,74.9,70.6,66.7,87,81,68,29.50,29.27,0,0,0,0.08
2013-11-27,80.2,72.4,59.5,72.1,63.3,49.8,88,74,52,29.55,29.23,0,0,0,0.59
2013-11-28,73.8,63.0,50.0,59.3,51.6,43.7,79,67,54,29.68,29.55,0,0,0,0.00
2013-11-29,77.5,70.0,61.0,61.0,57.3,53.5,79,65,53,29.71,29.62,0,0,0,0.00
2013-11-30,75.4,69.3,62.4,67.4,60.9,56.5,85,75,67,29.65,29.54,0,0,0,0.35
2013-12-1,77.2,68.5,63.0,68.8,63.0,56.7,89,83,72,29.54,29.38,0,0,0,1.48
2013-12-2,75.6,68.1,62.4,66.7,61.9,56.5,91,81,61,29.38,29.26,0,0,0,0.02
2013-12-3,80.8,70.4,61.2,65.5,61.4,55.8,87,74,58,29.45,29.34,0,0,0,0.00
2013-12-4,69.6,68.2,66.0,62.7,61.8,60.4,82,80,78,29.45,29.43,0,0,0,0.00
2013-12-5,83.1,74.2,66.0,71.3,66.1,61.0,85,76,65,29.60,29.52,0,0,0,0.00
2013-12-6,85.6,78.5,72.3,70.3,66.9,63.2,80,68,58,29.63,29.53,0,0,0,0.00
2013-12-7,86.0,76.0,68.4,72.0,66.8,61.8,85,74,56,29.66,29.58,0,0,0,0.00
2013-12-8,85.5,77.1,71.8,70.9,67.7,65.3,84,73,59,29.65,29.56,0,0,0,0.00
2013-12-9,86.0,78.1,74.5,69.7,66.6,63.5,77,68,55,29.64,29.55,0,0,0,0.00
2013-12-10,85.8,77.6,72.5,72.8,68.6,66.4,81,74,63,29.61,29.52,0,0,0,0.00
2013-12-11,85.1,75.6,70.2,73.8,68.0,65.0,88,78,65,29.64,29.56,0,0,0,0.00
2013-12-12,80.8,72.1,67.8,69.5,63.9,57.7,88,76,65,29.67,29.57,0,0,0,0.00
2013-12-13,78.8,73.1,69.1,66.2,61.6,56.7,81,67,60,29.63,29.53,0,0,0,0.07
2013-12-14,84.0,76.9,72.3,72.1,68.5,65.8,81,76,64,29.55,29.43,0,0,0,0.00
2013-12-15,85.1,76.8,71.8,75.0,69.5,65.6,88,78,66,29.50,29.37,0,0,0,0.00
2013-12-16,74.1,68.7,62.4,65.6,59.4,55.9,82,73,62,29.60,29.48,0,0,0,0.00
2013-12-17,78.4,67.2,59.7,64.1,57.3,53.4,85,71,54,29.62,29.54,0,0,0,0.00
2013-12-18,77.9,66.7,60.4,58.5,55.4,53.3,83,68,50,29.68,29.58,0,0,0,0.00
2013-12-19,79.5,68.8,57.7,62.5,57.2,51.4,82,67,54,29.68,29.59,0,0,0,0.00
2013-12-20,83.8,75.8,70.3,69.7,65.0,59.6,75,69,59,29.63,29.55,0,0,0,0.00
2013-12-21,85.3,77.9,74.5,72.1,69.2,66.6,81,75,63,29.59,29.50,0,0,0,0.00
2013-12-22,85.1,78.3,75.0,72.7,70.1,68.7,82,76,65,29.61,29.52,0,0,0,0.00
2013-12-23,86.0,78.1,71.4,73.1,69.7,65.3,83,76,64,29.62,29.56,0,0,0,0.00
2013-12-24,84.4,72.3,67.6,72.8,64.8,59.9,87,78,61,29.62,29.52,0,0,0,0.00
2013-12-25,76.8,72.8,70.5,65.2,63.7,62.1,83,73,66,29.61,29.54,0,0,0,0.04
2013-12-26,79.7,74.5,71.4,69.3,66.9,64.7,82,77,70,29.60,29.50,0,0,0,0.34
2013-12-27,81.7,74.7,70.5,70.4,67.4,65.8,85,78,68,29.63,29.53,0,0,0,0.00
2013-12-28,81.7,76.3,72.7,71.1,68.6,65.8,83,77,68,29.62,29.47,0,0,0,0.00
2013-12-29,82.0,77.0,74.5,74.7,70.9,69.2,86,82,74,29.48,29.37,0,0,0,0.00
2013-12-30,81.7,73.8,69.6,70.5,67.7,63.2,88,81,67,29.58,29.42,0,0,0,0.00
2013-12-31,79.7,72.6,67.8,66.8,62.6,60.5,82,71,59,29.66,29.54,0,0,0,0.00
2014-1-1,80.2,75.3,72.3,72.7,68.2,63.0,85,78,70,29.63,29.49,0,0,0,0.29
2014-1-2,86.5,76.3,69.1,70.9,67.1,64.1,86,74,54,29.49,29.31,0,0,0,0.00